Regional Weather Roundup
Issued by NWS

Home | Current Version | Previous Version | Text Only | Print | Product List | Glossary On
Versions: 1 2 3 4 5 6 7 8 9 10 11 12 13 14 15 16 17 18 19 20 21 22 23 24 25 26 27 28 29 30 31 32 33 34 35 36 37 38 39 40 41 42 43 44 45 46 47 48 49 50
000
ASUS43 KLSX 261057
RWRMO

WEATHER SUMMARY FOR MISSOURI
NATIONAL WEATHER SERVICE SPRINGFIELD MO
500 AM CST SUN FEB 26 2017

NOTE: "FAIR" INDICATES FEW OR NO CLOUDS BELOW 12,000 FEET WITH NO
       SIGNIFICANT WEATHER AND/OR OBSTRUCTIONS TO VISIBILITY.
       CURRENT SKY AND/OR WEATHER CONDITIONS ARE NOT AVAILABLE FOR
       CHILLICOTHE AND FARMINGTON.

MOZ001>031-035>038-043-044-053-054-261200-
...NORTHERN AND WESTERN MISSOURI...

CITY           SKY/WX    TMP DP  RH WIND       PRES   REMARKS
KANSAS CTY INT CLOUDY    35  15  44 SW12      29.99R WCI  27
LEE`S SUMMIT   CLOUDY    35  15  44 S13       30.00R WCI  26
ST JOSEPH      CLOUDY    31  18  58 S5        29.98S WCI  26
CHILLICOTHE      N/A     31  16  54 S7        30.00S WCI  24

$$
MOZ066>068-077>081-088>096-101>105-261200-
...SOUTHWEST MISSOURI...

CITY           SKY/WX    TMP DP  RH WIND       PRES   REMARKS
SPRINGFIELD    CLOUDY    33  16  49 S9        30.04R WCI  25
JOPLIN         CLOUDY    36  19  50 S6        30.03S

$$
MOZ032>034-039>042-045>050-055>058-069>072-261200-
...CENTRAL MISSOURI...

CITY           SKY/WX    TMP DP  RH WIND       PRES   REMARKS
COLUMBIA       NOT AVBL
JEFFERSON CITY PTCLDY    29  14  53 E5        30.06F WCI  24
ROLLA          CLEAR     28  12  51 S9        30.04F WCI  19
SEDALIA        CLOUDY    36  14  40 S12       30.04R WCI  28
WARRENSBURG    CLOUDY    34  18  51 S10       30.02R WCI  26

$$
MOZ051-052-059>065-261200-
...EAST CENTRAL MISSOURI...

CITY           SKY/WX    TMP DP  RH WIND       PRES   REMARKS
ST LOUIS INTL  CLEAR     33  14  45 S12       30.09F WCI  24

$$
MOZ072>076-082>087-097>100-106>115-261200-
...SOUTH CENTRAL AND SOUTHEAST MISSOURI...

CITY           SKY/WX    TMP DP  RH WIND       PRES   REMARKS
CAPE GIRARDEAU CLEAR     25  18  74 CALM      30.17S
POPLAR BLUFF   CLEAR     26  23  88 CALM      30.15F
WEST PLAINS    CLEAR     30  11  45 SE5       30.09F WCI  25

$$


USA.gov is the U.S. government's official web portal to all federal, state and local government web resources and services.